Location: Little Bennett Regional Park
(39.2840°N, 77.2890°W)
Time: 22:12:14
(UTC-04:00)

Daily predictions for brighter satellites

Satellite Brightness Start Highest point End
(mag) Time Altitude Azimuth Time Altitude Azimuth Time Altitude Azimuth
Cosmos 1607 4.3 21:01:01 10° NNW 21:07:19 56° NE 21:13:26 10° SE
Cosmos 1626 Rocket 3.6 21:07:53 10° S 21:12:21 90° SSE 21:16:50 10° N
Resurs 1-3 3.7 21:08:51 10° SSE 21:13:14 83° WSW 21:17:39 10° NNW
Cosmos 1470 2.7 21:10:28 10° N 21:14:22 71° E 21:18:15 10° SSE
ERS-2 2.1 21:11:38 10° SSE 21:15:17 77° ENE 21:18:58 10° N
ARGOS 3.9 21:10:56 10° SE 21:15:51 37° ENE 21:20:47 10° N
NOAA 11 4.2 21:12:34 10° SSE 21:18:00 84° ENE 21:23:27 10° NNW
OAO 3 Rocket 3.9 21:17:23 10° SW 21:21:55 36° SSE 21:26:25 10° E
Meteor 2-5 Rocket 4.3 21:16:48 10° SSE 21:22:20 42° E 21:27:51 10° NNE
Cosmos 1844 Rocket 4.0 21:19:12 10° SE 21:23:08 20° E 21:27:05 10° NE
Thor Agena Rocket 4.1 21:18:14 10° N 21:23:19 64° WNW 21:28:18 10° SSW
Cosmos 1602 Rocket 3.9 21:21:33 10° SSW 21:26:00 73° W 21:30:30 10° N
NOSS 2-3 (D) 3.8 21:22:02 10° SSW 21:26:31 89° ESE 21:31:42 10° NE
Cosmos 1939 Rocket 4.4 21:25:42 10° SSW 21:29:28 35° W 21:33:13 10° NNW
Cosmos 1812 Rocket 3.5 21:25:13 10° N 21:29:35 78° E 21:33:56 10° S
Resurs 01 Rocket 2.3 21:26:56 10° S 21:31:15 55° W 21:35:37 10° NNW
SL-08 RB Rocket 4.4 21:31:55 11° SE 21:35:57 39° ENE 21:40:18 10° N
Cosmos 1953 Rocket 4.3 21:32:49 10° SSE 21:36:41 33° E 21:40:36 10° NNE
Cosmos 1758 Rocket 3.9 21:38:08 10° SSE 21:42:26 48° E 21:46:42 10° NNE
Terra 3.9 21:48:36 10° E 21:51:02 14° ENE 21:53:28 10° NNE
Helios 1A 4.5 21:50:13 15° ESE 21:52:32 23° ENE 21:55:51 10° NNE
Cosmos 2263 Rocket 3.3 21:47:36 10° SW 21:53:04 47° WNW 21:58:32 10° NNE
BREEZE-M R/B 3.2 21:52:04 10° WNW 21:54:52 30° SW 21:56:05 19° S
ATLAS 2AS CENTAUR R/B 3.2 21:48:28 10° S 21:55:47 49° ESE 22:03:29 10° NE
Meteor 1-16 Rocket 4.2 21:53:22 10° N 21:58:55 86° W 22:04:18 12° S
Cosmos 1315 Rocket 2.7 21:56:54 10° S 22:00:55 77° E 22:05:00 10° NNE
Cosmos 2285 Rocket 4.0 21:55:56 10° S 22:02:10 65° ESE 22:08:25 10° NNE
GENESIS II 4.2 21:58:35 10° SSW 22:02:23 58° ESE 22:06:15 10° NE
Cosmos 1953 4.5 22:00:02 10° NW 22:03:17 24° W 22:06:31 10° SW
Cosmos 1825 Rocket 3.8 22:04:18 10° SSW 22:08:44 71° W 22:13:13 10° N
ERS-1 Rocket 3.0 22:06:49 20° SSE 22:10:18 68° ENE 22:15:19 10° N
Helios 1B rocket 3.5 22:08:33 10° NE 22:11:59 25° E 22:12:48 24° ESE
CSL-04 DEB 4.4 22:09:59 25° SE 22:12:05 60° ENE 22:15:58 10° N
CZ-2C R/B 4.4 22:09:30 10° ENE 22:12:19 14° E 22:13:03 14° E
In-Cosmos 22 4.1 22:07:11 10° S 22:12:40 87° E 22:18:20 10° N
SPOT 5 3.5 22:10:48 22° SE 22:13:41 46° ENE 22:18:39 10° N
Cosmos 1048 Rocket 4.2 22:09:39 10° SSW 22:14:56 78° WNW 22:20:19 10° NNE
Iridium 4 Rocket 4.0 22:10:15 10° S 22:15:59 66° W 22:21:23 10° N
Cosmos 1340 4.2 22:15:09 10° NNE 22:18:05 21° ENE 22:18:53 19° E
Iridium 18 4.4 22:21:37 41° SE 22:22:19 52° E 22:25:45 10° NNE
Lacrosse 5 1.9 22:17:21 10° SW 22:22:25 84° NW 22:27:31 10° NE
Cosmos 921 Rocket 3.7 22:18:58 10° N 22:23:14 42° ENE 22:25:03 28° ESE
S3M 4.4 22:19:53 22° SSE 22:23:33 45° E 22:29:33 10° NNE
Meteor 1-29 4.4 22:22:16 10° NE 22:24:33 21° E 22:24:33 21° E
Cosmos 1238 Rocket 2.6 22:23:37 21° SSW 22:25:23 56° W 22:28:18 10° N
Cosmos 1674 2.7 22:25:59 34° SSE 22:27:27 62° E 22:31:15 10° NNE
Aureole 1 Rocket 4.2 22:26:34 10° SW 22:29:23 32° WNW 22:32:39 10° N
NOSS 3-4 (A) 4.5 22:32:55 23° ESE 22:33:19 23° ESE 22:38:07 10° ENE
CARTOSAT-1 4.2 22:36:10 32° ESE 22:37:30 42° ENE 22:41:35 10° N
Cosmos 2278 Rocket 3.1 22:38:39 26° ESE 22:39:22 27° ESE 22:44:03 10° NE
SL-14 R/B 4.3 22:44:17 29° E 22:44:17 29° E 22:47:34 10° NNE
Cosmos 1346 Rocket 3.1 22:41:06 10° NNW 22:45:02 63° W 22:46:37 34° SSW
COSMOS 2406 3.6 22:40:30 10° NNW 22:46:08 51° ENE 22:48:35 31° ESE
SPOT 1/Viking Rocket 3.5 22:43:54 32° SSE 22:46:22 89° W 22:51:32 10° NNW
BREEZE-M DEB (TANK) 4.0 22:38:03 10° WSW 22:46:40 51° NW 22:49:41 10° NE
H-2A R/B 3.1 22:43:06 15° SSW 22:46:58 40° W 22:52:00 10° NNW
Cosmos 1553 Rocket 3.8 22:44:41 24° S 22:48:35 83° E 22:54:40 10° N
Cosmos 724 4.3 22:48:07 10° NNW 22:54:10 80° ENE 22:56:49 36° SE
Cosmos 220 Rocket 4.1 22:54:37 48° ESE 22:54:55 50° ESE 22:59:01 10° NNE
Cosmos 1461 4.4 22:58:00 25° E 22:58:00 25° E 23:00:54 10° NE
Cosmos 1110 Rocket 3.9 22:52:03 10° NNW 22:57:15 86° ENE 22:59:03 42° SSE
Cosmos 1726 2.0 22:54:07 10° N 22:57:53 87° E 22:58:22 66° SSE
Cosmos 1844 3.7 22:54:48 14° SSW 22:59:47 81° WNW 23:05:34 10° NNE
SL-8 R/B 3.7 22:56:20 10° WSW 23:01:10 86° NW 23:06:01 10° ENE
KORONAS-FOTON 4.2 23:01:18 38° SW 23:02:33 61° W 23:06:27 10° N
Cosmos-2242 4.2 22:59:46 10° NNW 23:03:49 37° W 23:05:52 23° SW
Meteor 2-10 4.1 22:58:44 10° N 23:04:09 86° E 23:06:10 41° SSE
Cosmos 1842 Rocket 3.4 23:00:29 10° N 23:04:50 75° E 23:05:36 58° SE
OAO 3 Rocket 3.3 23:00:19 10° WSW 23:05:06 52° S 23:05:27 51° SSE
IGS 5A 3.3 23:05:00 59° S 23:05:47 88° WSW 23:09:57 10° NNW
APEX 4.2 23:03:33 10° N 23:06:06 29° NE 23:06:06 29° NE
Cosmos 1844 Rocket 3.3 23:01:00 10° SW 23:06:33 55° WNW 23:12:06 10° NNE
Landsat 7 4.0 23:07:17 40° SSW 23:08:52 64° W 23:13:37 10° NNW
Cosmos 1331 Rocket 4.0 23:08:25 10° NNW 23:13:37 76° WSW 23:15:07 47° S
Cosmos 1386 Rocket 4.3 23:11:09 10° N 23:17:17 82° E 23:19:21 44° SSE
Cosmos 2084 3.6 23:15:21 10° NW 23:19:00 49° WSW 23:19:00 49° WSW
USA 238 DEB 3.7 23:13:25 10° NW 23:20:36 89° WSW 23:23:31 40° SSE
USA 238 3.7 23:13:31 10° NW 23:20:43 89° WSW 23:23:37 40° SSE
CZ-2C R/B 3.3 23:18:55 45° SSE 23:20:51 88° ENE 23:26:42 10° NNW
TELKOM 3 4.4 23:15:18 10° NW 23:21:09 87° NNE 23:21:38 70° ESE
Okean 3 Rocket 4.4 23:22:26 36° E 23:22:26 36° E 23:26:06 10° NNE
ATLAS 3B R/B 2.6 23:19:58 10° NNW 23:26:38 77° ENE 23:28:55 43° SE
Helios 1A 4.5 23:26:52 24° WSW 23:27:57 27° W 23:31:33 10° NW
Cosmos 2082 Rocket 3.7 23:23:20 10° N 23:28:04 26° NE 23:30:12 21° E
Terra 2.0 23:27:13 50° SSW 23:28:13 63° W 23:32:57 10° NNW
ATLAS 5 CENTAUR R/B 3.0 23:32:31 27° ENE 23:32:31 27° ENE 23:35:14 10° NE
Mayak 1.0 23:29:44 10° NE 23:31:04 15° ENE 23:31:04 15° ENE
NOSS 3-2 (A) 4.1 23:27:18 10° NNW 23:34:57 76° NE 23:38:29 38° SE
Cosmos 2251 Rocket 3.6 23:33:43 39° SW 23:35:42 73° WNW 23:41:04 10° NNE
Cosmos 1833 Rocket 3.8 23:32:38 10° N 23:37:42 33° ENE 23:39:19 28° E
Cosmos 1302 Rocket 3.9 23:34:00 10° NNW 23:39:19 81° WSW 23:40:10 63° S
Spot 4 3.8 23:43:44 65° ESE 23:44:10 69° ENE 23:49:01 10° N
ATLAS 2AS CENTAUR R/B 4.2 23:39:33 10° WSW 23:46:57 43° NW 23:54:37 10° NNE
Helios 1B rocket 4.5 23:43:52 10° NNW 23:47:09 24° WNW 23:49:09 17° WSW
Cosmos 1328 4.1 23:48:01 61° NNE 23:48:01 61° NNE 23:51:20 10° N
CZ-2C R/B 2.8 23:47:41 10° N 23:53:06 68° WNW 23:54:35 46° SW
Cosmos 2221 2.8 23:48:57 10° NNW 23:53:10 59° W 23:53:10 59° W
Cosmos 1626 2.9 23:56:30 51° NNW 23:56:30 51° NNW 23:59:31 10° N
